Falls City, NE

8:40 PM CST on December 14, 2019 (GMT -0600)
Brenner

Weather History for KFNB - November, 2019

Change the Weather History Date:

Sunday, November 17, 2019

  Actual Average Record
Temperature  
Mean Temperature 44 °F -  
Max Temperature 55 °F 53 °F 73 °F (1999)
Min Temperature 30 °F 31 °F 2 °F (1959)
Degree Days  
Heating Degree Days 22    
Moisture  
Dew Point 34 °F    
Average Humidity 66    
Maximum Humidity 88    
Minimum Humidity 45    
Precipitation  
Precipitation 0.00 in - - ()
Sea Level Pressure  
Sea Level Pressure 29.97 in    
Wind  
Wind Speed 10 mph (NW)    
Max Wind Speed 17 mph    
Max Gust Speed 25 mph    
Visibility 10 miles    
Events      
Averages and records for this station are not official NWS values.
T = Trace of Precipitation, MM = Missing Value Source: NWS Daily Summary

Daily Weather History Graph

Daily Weather History Graph

Search for Another Location

Airport or City:

Astronomy

Nov. 17, 2019 Rise Set
Actual Time 7:09 AM CST 5:04 PM CST
Civil Twilight 6:40 AM CST 5:33 PM CST
Nautical Twilight 6:07 AM CST 6:06 PM CST
Astronomical Twilight 5:35 AM CST 6:38 PM CST
Moon 9:42 PM CST (11/17) 11:56 AM CST (11/17)
Length of Visible Light 10h 53m
Length of Day
9h 54m
Waning Gibbous, 73% of the Moon is Illuminated
Nov 17
Waning Gibbous
Nov 19
Last Quarter
Nov 26
New
Dec 4
First Quarter
Dec 11
Full

Hourly Weather History & Observations

Time (CST) Temp. Windchill Dew Point Humidity Pressure Visibility Wind Dir Wind Speed Gust Speed Precip Events Conditions
12:53 AM 46.9 °F - 30.9 °F 54% 29.97 in 10.0 mi South 10.4 mph - N/A   Clear
1:53 AM 46.0 °F 42.5 °F 30.9 °F 56% 29.96 in 10.0 mi SW 6.9 mph - N/A   Scattered Clouds
2:53 AM 45.0 °F 41.2 °F 30.9 °F 58% 29.97 in 10.0 mi WSW 6.9 mph - N/A   Clear
3:53 AM 45.0 °F 39.3 °F 34.0 °F 65% 29.97 in 10.0 mi WNW 11.5 mph - N/A   Clear
4:53 AM 45.0 °F 39.3 °F 37.0 °F 74% 29.97 in 10.0 mi NW 11.5 mph - N/A   Scattered Clouds
5:53 AM 45.0 °F 39.7 °F 39.0 °F 80% 29.98 in 10.0 mi NW 10.4 mph - N/A   Mostly Cloudy
6:53 AM 45.0 °F 38.9 °F 39.0 °F 80% 29.98 in 10.0 mi NW 12.7 mph - 0.00 in   Overcast
7:53 AM 45.0 °F 37.9 °F 37.9 °F 76% 30.00 in 10.0 mi NW 16.1 mph 25.3 mph N/A   Partly Cloudy
8:38 AM 46.9 °F - 39.0 °F 74% 30.00 in 10.0 mi NW 17.3 mph - N/A   Mostly Cloudy
8:53 AM 46.0 °F 39.6 °F 37.9 °F 73% 30.01 in 10.0 mi NW 15.0 mph 24.2 mph N/A   Mostly Cloudy
9:08 AM 48.0 °F - 39.0 °F 71% 30.01 in 10.0 mi NW 13.8 mph - N/A   Scattered Clouds
9:53 AM 48.9 °F - 37.9 °F 66% 30.02 in 10.0 mi NW 17.3 mph - N/A   Mostly Cloudy
10:53 AM 50.0 °F - 37.0 °F 61% 30.03 in 10.0 mi NW 12.7 mph - N/A   Overcast
11:53 AM 52.0 °F - 37.0 °F 57% 30.00 in 10.0 mi NNW 9.2 mph 20.7 mph N/A   Overcast
12:53 PM 52.0 °F - 34.0 °F 50% 29.98 in 10.0 mi NNW 12.7 mph 24.2 mph N/A   Overcast
1:53 PM 52.0 °F - 34.0 °F 50% 29.97 in 10.0 mi NNW 11.5 mph 19.6 mph N/A   Mostly Cloudy
2:53 PM 55.0 °F - 34.0 °F 45% 29.96 in 10.0 mi NNW 13.8 mph 21.9 mph N/A   Mostly Cloudy
3:53 PM 54.0 °F - 33.1 °F 45% 29.95 in 10.0 mi NW 11.5 mph - N/A   Scattered Clouds
4:53 PM 48.0 °F - 33.1 °F 56% 29.95 in 10.0 mi WNW 8.1 mph - N/A   Clear
5:53 PM 44.1 °F 40.1 °F 32.0 °F 63% 29.96 in 10.0 mi WNW 6.9 mph - N/A   Clear
6:53 PM 41.0 °F 39.0 °F 30.9 °F 67% 29.96 in 10.0 mi NW 3.5 mph - N/A   Clear
7:53 PM 41.0 °F 38.0 °F 32.0 °F 70% 29.96 in 10.0 mi West 4.6 mph - N/A   Clear
8:53 PM 37.0 °F - 30.0 °F 76% 29.96 in 10.0 mi Calm Calm - N/A   Clear
9:53 PM 37.0 °F 34.5 °F 30.0 °F 76% 29.93 in 10.0 mi ESE 3.5 mph - N/A   Clear
10:53 PM 32.0 °F - 28.9 °F 88% 29.93 in 10.0 mi Calm Calm - N/A   Clear
11:53 PM 30.9 °F - 27.0 °F 85% 29.91 in 10.0 mi Calm Calm - N/A   Clear